Torna al catalogo

STARLINK-3751

AttivoComunicazioniVLEO
NORAD 52289·PAYLOAD·🇺🇸 United States

Lanciato Apr 21, 2022 da Cape Canaveral Space Force Station

Loading…

Prossimi Passaggi (prossime 24 ore)

TLE

AggiornatoSource: CelesTrak SupGP

Epoca: Sep 15, 2026, 01:20 UTC

1 52289C 22041AE  26258.05604167  .00037628  00000+0  12101-2 0  2587
2 52289  53.1594 317.1445 0001161  89.6597  88.7597 15.31680179    19

Traccia STARLINK-3751 in tempo reale con AllMySat

Download on the App Store